Regional Weather Roundup
Issued by NWS

Home | Current Version | Previous Version | Graphics & Text | Print | Product List | Glossary Off
Versions: 1 2 3 4 5 6 7 8 9 10 11 12 13 14 15 16 17 18 19 20 21 22 23 24 25 26 27 28 29 30 31 32 33 34 35 36 37 38 39 40 41 42 43 44 45 46 47 48 49 50

318
ASUS43 KMKX 171200
RWRWI

WISCONSIN REGIONAL WEATHER ROUNDUP
NATIONAL WEATHER SERVICE MILWAUKEE/SULLIVAN WI
600 AM CST WED JAN 17 2018

NOTE: "FAIR" INDICATES FEW OR NO CLOUDS BELOW 12,000 FEET WITH NO
SIGNIFICANT WEATHER AND/OR OBSTRUCTIONS TO VISIBILITY.

WIZ001-002-006>008-014>016-023>028-171300-
NORTHWEST WISCONSIN

CITY           SKY/WX    TMP DP  RH WIND       PRES   REMARKS
SUPERIOR ARPT  FAIR       6  -3  67 SW13      30.24F WCI -10
6HR MIN TEMP:   4; 6HR MAX TEMP:   6;

ASHLAND        FAIR       5  -3  69 SW13      30.23F WCI -12
6HR MIN TEMP:   5; 6HR MAX TEMP:   8;

HAYWARD        FAIR       3  -5  69 SW7       30.26F WCI  -9
6HR MIN TEMP:  -1; 6HR MAX TEMP:   3;

SIREN          FAIR       4  -4  69 SW8       30.32F WCI  -9
CUMBERLAND     FAIR       1  -6  71 S6        30.32F WCI -10
RICE LAKE      FAIR      -1  -4  83 CALM      30.36F
CHETEK         FAIR      -2  -5  84 MISG      30.36F
LADYSMITH      FAIR      -3  -7  84 S3        30.34F
6HR MIN TEMP:  -3; 6HR MAX TEMP:   1;

EAU CLAIRE     NOT AVBL
MENOMONIE      FAIR      -4  -8  81 SE5       30.40F WCI -15
6HR MIN TEMP:  -7; 6HR MAX TEMP:  -3;

NEW RICHMOND   FAIR      -1  -6  80 SW8       30.38F WCI -16
OSCEOLA        FAIR      -2  -6  80 S8        30.40F WCI -16
$$

WIZ003>005-009-010-017-018-171300-
NORTH CENTRAL WISCONSIN

CITY           SKY/WX    TMP DP  RH WIND       PRES   REMARKS
MANITOWISH WTR FAIR       4  -3  71 SW12      30.21F WCI -12
ARBOR VITAE    FAIR       6   0  78 W7        30.22F WCI  -6
WOODRUFF       FAIR       6   0  78 W7        30.22F WCI  -6
RHINELANDER    FAIR       4  -1  80 W9        30.24F WCI -10
6HR MIN TEMP:   1; 6HR MAX TEMP:   4;

EAGLE RIVER    FAIR       5  -2  72 W12       30.20F WCI -11
6HR MIN TEMP:   2; 6HR MAX TEMP:   5;

LAND O LAKES   FAIR       8   0  72 W9        30.20F WCI  -6
PHILLIPS       FAIR       1  -4  78 SW10G17   30.26F WCI -14
6HR MIN TEMP:  -2; 6HR MAX TEMP:   2;

TOMAHAWK       FAIR       3  -2  78 SW5       30.28F WCI  -6
MEDFORD        MOCLDY    -1  -5  84 W6        30.31F WCI -13
MERRILL        FAIR       1  -4  81 SW3       30.32F
6HR MIN TEMP:  -2; 6HR MAX TEMP:   2;

$$

WIZ029-030-035-036-043>047-171300-
CENTRAL WISCONSIN

CITY           SKY/WX    TMP DP  RH WIND       PRES   REMARKS
WAUSAU         MOCLDY     1  -3  83 W5        30.33F WCI  -9
6HR MIN TEMP:  -3; 6HR MAX TEMP:   1;

MOSINEE        FAIR       0  -2  92 SW8       30.36F WCI -15
MARSHFIELD     FAIR      -1  -5  82 W7        30.34F WCI -14
6HR MIN TEMP:  -4; 6HR MAX TEMP:  -1;

STEVENS POINT  CLOUDY    -1  -4  86 W9        30.39S WCI -17
WAUPACA        FAIR       2  -3  77 SW7       30.42F WCI -10
WAUTOMA        MOCLDY    -1  -5  82 SW7       30.43F WCI -14
6HR MIN TEMP:  -2; 6HR MAX TEMP:   3;

WISC RAPIDS    CLOUDY     0  -6  76 W8        30.41F WCI -14
6HR MIN TEMP:  -2; 6HR MAX TEMP:   3;

CAMP DOUGLAS   MOCLDY    -6  -9  84 CALM      30.43F
$$

WIZ011>013-019>022-031-037>040-048>050-171300-
NORTHEAST WISCONSIN

CITY           SKY/WX    TMP DP  RH WIND       PRES   REMARKS
ANTIGO         MOCLDY     1  -3  85 W9        30.29S WCI -15
SHAWANO        CLOUDY     7   1  75 SW10      30.37S WCI  -8
6HR MIN TEMP:   5; 6HR MAX TEMP:  11;

OCONTO         CLOUDY     6   1  80 W9        30.37S WCI  -8
STURGEON BAY   CLOUDY     5   1  83 SW18      30.34F WCI -15
6HR MIN TEMP:   5; 6HR MAX TEMP:  10;

GREEN BAY      CLOUDY     5  -1  76 SW10      30.40F WCI -10
6HR MIN TEMP:   4; 6HR MAX TEMP:  11;

MANITOWOC      FAIR       5   0  79 W12       30.41F WCI -11
6HR MIN TEMP:   4; 6HR MAX TEMP:  12;

APPLETON       MOCLDY     1  -4  78 W14       30.38F WCI -17
CLINTONVILLE   CLOUDY     5   0  78 W8        30.39S WCI  -8
OSHKOSH        FAIR       3  -1  83 W8        30.41F WCI -10
6HR MIN TEMP:   3; 6HR MAX TEMP:   8;

$$

WIZ032>034-041-042-053>061-171300-
SOUTHWEST WISCONSIN

CITY           SKY/WX    TMP DP  RH WIND       PRES   REMARKS
LA CROSSE      FAIR      -1  -6  79 S10       30.49F WCI -17
6HR MIN TEMP:  -6; 6HR MAX TEMP:   1;

SPARTA         FAIR      -6  -9  87 CALM      30.47F
VIROQUA        FAIR      -4  -6  89 SW7       30.42F WCI -18
6HR MIN TEMP:  -6; 6HR MAX TEMP:  -3;

BOSCOBEL       FAIR      -4  -9  79 SW6       30.53F WCI -16
6HR MIN TEMP:  -5; 6HR MAX TEMP:   1;

PRAIRIE DU CHI FAIR      -6 -11  78 CALM      30.54F
PLATTEVILLE    FAIR      -4  -6  89 SW5       30.51S WCI -15
$$

WIZ056-057-062-063-064-067-068-171300-
SOUTH CENTRAL WISCONSIN

CITY           SKY/WX    TMP DP  RH WIND       PRES   REMARKS
REEDSBURG      FAIR      -1  -4  84 SW6       30.47S WCI -12
BARABOO/DELLS  FAIR       0  -4  85 W7        30.45F WCI -13
LONE ROCK      NOT AVBL
MINERAL POINT  FAIR       0  -4  85 W5        30.46F WCI -10
MADISON        FAIR       1  -3  83 CALM      30.47F
6HR MIN TEMP:   1; 6HR MAX TEMP:   6;

MIDDLETON      FAIR       1  -3  83 W8        30.47F WCI -13
WATERTOWN      FAIR      -1  -3  92 CALM      30.46F
MONROE         FAIR       0  -4  85 W17       30.47S WCI -21
JANESVILLE     FAIR       0  -6  78 CALM      30.50F
$$

WIZ051-052-058>065-066-070>072-171300-
SOUTHEAST WISCONSIN

CITY           SKY/WX    TMP DP  RH WIND       PRES   REMARKS
MILWAUKEE      FAIR       7   3  84 W7        30.47S WCI  -5
6HR MIN TEMP:   7; 6HR MAX TEMP:  14;

WAUKESHA       CLEAR      3   0  85 SW7       30.47S WCI  -9
MILWAUKEE/TIMM FAIR       5   1  85 W8        30.47S WCI  -8
RACINE         FAIR       5   1  83 W8        30.50R WCI  -8
6HR MIN TEMP:   4; 6HR MAX TEMP:  10;

BURLINGTON     FAIR       1  -3  81 SW5       30.49S WCI  -8
KENOSHA        FAIR       1  -3  83 W7        30.49R WCI -12
6HR MIN TEMP:   1; 6HR MAX TEMP:   8;

FOND DU LAC    FAIR       3  -3  76 SW7       30.44F WCI  -9
6HR MIN TEMP:   1; 6HR MAX TEMP:   8;

SHEBOYGAN      FAIR       4   0  83 W10       30.41F WCI -11
6HR MIN TEMP:   3; 6HR MAX TEMP:  11;

WEST BEND      FAIR       3   1  92 W7        30.43F WCI  -9
JUNEAU         FAIR      -1  -5  86 SW3       30.46S
$$

LSZ147-162-171300-
LAKE SUPERIOR

STATION/POSITION TIME  TEMP    WIND        PRES    WAVE
                       AIR SEA DIR/SP/G            HT/PER
                 (UTC) (F)     (DEG/KT/KT) (MB)    (FT/S)
DEVILS ISLAND    1100   11     220/ 23/ 30 1023.9F
SAXON HARBOR     0940   10     200/ 13/ 18 1024.4F
$$

LMZ867-665-643>646-171300-
LAKE MICHIGAN

STATION/POSITION TIME  TEMP    WIND        PRES    WAVE
                       AIR SEA DIR/SP/G            HT/PER
                 (UTC) (F)     (DEG/KT/KT) (MB)    (FT/S)
NORTHPORT PIER   1137    8     230/ 13     1026.1F
KEWAUNEE LAKESHO 1130    6     260/ 11/ 16 1027.9F
SHEBOYGAN LAKESH 1100    8     260/ 11/ 14 1031.8F
PORT WASHINGTON  1140    7     260/  6/ 11 1032.2F
MILWAUKEE LAKESH 1130   10     270/  9/ 11   N/A
KENOSHA   LAKESH 1100    8     260/ 10/ 13 1032.2
$$

TC  - TEMPERATURE IN CELSIUS
VSB - VISIBILITY IN STATUTE MILES
WCI - WIND CHILL INDEX
HX  - HEAT INDEX





USA.gov is the U.S. government's official web portal to all federal, state and local government web resources and services.